Location: Unspecified
(41.5516°N, 88.1098°W)
Time: 07:28:21
(UTC-05:00)

Cosmos 2058 - Visible Passes

Search period start: 30 May 2015 00:00
Search period end: 09 June 2015 00:00
Orbit: 568 x 588 km, 82.5° (Epoch: 29 May)

Date Brightness Start Highest point End Pass type
(mag) Time Alt. Az. Time Alt. Az. Time Alt. Az.
30 May 3.9 00:59:17 42° NE 00:59:17 42° NE 01:02:28 10° NNE visible
30 May 5.2 02:35:35 13° WNW 02:35:50 13° WNW 02:37:44 10° NW visible
31 May 3.6 01:03:37 53° NNE 01:03:37 53° NNE 01:06:58 10° NNE visible
01 Jun 3.4 01:07:56 58° N 01:07:56 58° N 01:11:23 10° N visible
01 Jun 5.5 23:35:57 10° ENE 23:35:57 10° ENE 23:36:10 10° ENE visible
02 Jun 3.6 01:12:14 51° NW 01:12:14 51° NW 01:15:45 10° N visible
02 Jun 5.2 23:40:14 14° ENE 23:40:14 14° ENE 23:41:48 10° NE visible
03 Jun 3.9 01:16:32 40° WNW 01:16:32 40° WNW 01:20:02 10° N visible
03 Jun 4.9 23:44:31 19° ENE 23:44:31 19° ENE 23:46:47 10° NE visible
04 Jun 4.3 01:20:48 30° WNW 01:20:48 30° WNW 01:24:15 10° NNW visible
04 Jun 4.5 23:48:47 25° ENE 23:48:47 25° ENE 23:51:33 10° NNE visible
05 Jun 4.7 01:25:04 23° WNW 01:25:04 23° WNW 01:28:21 10° NNW visible
05 Jun 4.1 23:53:01 34° ENE 23:53:01 34° ENE 23:56:12 10° NNE visible
06 Jun 5.0 01:29:18 17° WNW 01:29:31 17° WNW 01:32:19 10° NNW visible
06 Jun 3.6 23:57:15 46° ENE 23:57:15 46° ENE 00:00:46 10° NNE visible
07 Jun 5.4 01:33:32 13° WNW 01:34:05 13° WNW 01:36:01 10° NW visible
08 Jun 3.2 00:01:28 64° NE 00:01:28 64° NE 00:05:13 10° NNE visible
